User: anonymous   Login
Location: Unspecified
(0.0000°N, 0.0000°E)
Time: 06:46:28
(UTC+00:00)
Language:

STARLINK-30797 - Orbit

View from above orbital plane
View from above orbital plane
View from above satellite
View from above satellite

Ground track
Ground track

The orbit is defined by the following mean orbital elements,

1 58154U          26145.49930032 +.00000000 +00000-0 -45384-5 0 00004
2 58154  53.1614 223.0087 0000739  68.0739 292.0340 15.30185531    01
Epoch (UTC): 25 May 2026 11:58:59
Eccentricity: 0.0000739
inclination: 53.1614°
perigee height: 475 km
apogee height: 476 km
right ascension of ascending node: 223.0087°
argument of perigee: 68.0739°
revolutions per day: 15.30185531
mean anomaly at epoch: 292.0340°

The dashed part of the orbit path shows where the satellite is in the earth's shadow,  

DLR